User: anonymous   Login
Location: Unspecified
(0.0000°N, 0.0000°E)
Time: 09:08:18
(UTC+00:00)
Language:

URSA MAIOR - Orbit

View from above orbital plane
View from above orbital plane
View from above satellite
View from above satellite

Ground track
Ground track

The orbit data is extracted from the following two-line orbital elements,

1 42776U 17036M   19345.67155427 +.00000684 +00000-0 +33177-4 0  9995
2 42776 097.3283 038.2588 0012738 328.7065 031.3412 15.21722455136970
Epoch (UTC): 11 December 2019 16:07:02
Eccentricity: 0.0012738
inclination: 97.3283°
perigee height: 492 km
apogee height: 509 km
right ascension of ascending node: 38.2588°
argument of perigee: 328.7065°
revolutions per day: 15.21722455
mean anomaly at epoch: 31.3412°
orbit number at epoch: 13697

The dashed part of the orbit path shows where the satellite is in the earth's shadow,  

DLR